Theta_e
310 310 310 310 310 310 310 310 310 310 311 311 311 311 312 312 312 312 313 313 313 313 313 313 313 313 313 313 314 313 313 313 313 313 313 313 314 315 314 314 314 314 314 315 315 314 315 315 315 316 316 318 319 320 320 319 320 320 321 320 320 320 320 321 320 319 319 319 318 319 319 318 318 318 318 317 317 317 317 318 318 318 318 317 317 317 317 316
310 310 310 310 310 310 310 310 310 310 310 311 311 311 311 312 312 312 312 313 313 313 313 313 313 313 313 313 313 313 313 313 313 314 314 313 314 314 314 315 315 314 314 315 315 315 316 316 317 316 317 320 319 320 321 320 320 320 321 320 320 320 320 321 320 319 319 318 318 319 319 318 318 318 318 317 317 318 318 318 319 319 319 318 318 317 317 317
310 309 310 310 310 310 310 310 310 310 310 311 311 311 311 311 311 312 312 312 312 312 312 312 312 312 312 312 312 312 313 313 314 315 314 314 314 314 314 314 315 315 314 314 314 315 316 316 317 317 318 319 319 320 321 321 320 320 321 320 320 321 320 321 320 319 319 318 319 318 318 318 318 318 317 317 317 318 317 318 319 319 319 319 319 318 318 318
309 309 309 310 310 310 310 310 310 310 310 311 311 311 311 311 311 311 311 311 312 312 312 312 312 312 312 312 312 312 313 315 317 316 314 314 315 315 314 314 314 315 314 314 314 315 315 315 316 316 318 319 319 320 320 321 320 320 321 320 320 320 320 321 320 319 319 318 318 318 318 318 318 318 318 317 317 317 318 318 319 318 318 318 318 318 318 318
309 309 309 309 310 310 310 310 310 310 310 310 310 311 311 311 311 311 311 311 311 312 312 312 312 312 312 312 312 312 313 316 317 315 314 315 316 315 315 314 314 315 314 314 314 315 314 315 316 316 317 318 318 319 319 320 321 320 321 320 319 319 319 320 319 319 319 318 318 318 317 318 318 318 317 318 316 317 318 317 318 318 318 318 318 318 318 318
309 309 309 309 309 310 310 310 310 310 310 310 310 311 311 311 311 311 311 312 312 312 312 312 312 312 313 313 313 312 314 316 316 315 315 315 315 315 315 314 314 314 314 314 314 314 315 315 316 316 317 317 317 318 318 319 320 319 318 319 319 319 319 319 319 319 318 317 317 318 318 318 318 318 318 318 317 317 317 317 317 317 317 317 317 317 318 318
309 309 310 310 310 310 310 311 311 311 311 311 311 311 311 311 311 312 312 312 312 313 313 313 313 313 313 313 312 313 314 316 316 316 315 315 315 315 315 314 315 315 315 314 314 315 315 316 316 317 317 317 317 317 317 319 320 318 317 318 318 318 319 319 318 318 318 318 317 317 317 318 318 317 318 318 318 318 318 317 317 317 317 317 317 317 317 317
310 310 311 311 311 311 312 312 312 312 312 312 313 313 313 313 313 313 313 313 314 314 314 314 314 314 314 313 313 314 316 316 316 315 315 315 315 315 315 314 315 316 315 314 315 315 316 316 316 316 316 316 317 317 317 318 318 318 317 317 318 318 319 318 318 318 318 317 317 317 317 318 317 317 317 317 317 318 318 317 317 317 317 317 317 317 317 316
312 312 312 313 313 314 314 314 314 315 315 315 315 315 316 316 316 316 316 317 317 317 317 317 318 318 318 317 315 315 317 316 315 315 315 315 315 315 315 315 315 315 315 315 315 316 316 316 316 316 316 316 317 317 317 316 316 317 317 318 318 318 318 317 317 317 317 317 316 316 317 317 317 316 316 316 317 317 317 317 317 317 317 317 317 317 316 316
315 315 315 316 317 317 318 318 318 318 319 319 319 319 320 320 320 321 321 321 321 322 322 322 322 322 322 320 317 318 319 317 316 315 315 315 315 315 315 315 315 315 315 315 315 316 316 316 317 317 316 316 316 316 316 316 315 316 316 316 316 316 316 316 316 316 316 316 316 316 315 316 316 316 316 316 317 317 316 317 316 316 316 316 316 316 316 315
317 318 318 318 319 319 319 320 320 320 321 321 321 321 321 321 321 321 321 322 322 322 322 321 322 322 321 319 319 321 321 319 318 318 318 318 316 315 315 315 315 315 316 316 315 315 316 316 316 316 315 315 316 316 316 315 315 315 315 314 315 315 315 315 316 316 316 315 316 315 315 316 316 315 315 316 316 316 316 316 316 316 316 316 316 316 316 315
318 318 318 318 318 318 318 318 318 318 318 318 318 318 318 317 317 317 317 317 317 317 317 316 316 316 316 316 317 320 321 320 321 321 321 321 320 316 314 313 315 315 316 316 316 315 315 315 315 315 315 315 315 315 315 314 314 314 314 313 314 315 315 316 316 316 316 316 315 315 314 314 315 315 316 316 316 316 316 316 316 315 315 316 316 316 316 316
317 316 316 316 315 315 314 314 314 314 314 314 314 314 314 314 314 314 314 314 314 314 314 313 313 312 312 315 316 317 318 318 318 319 319 320 320 317 314 312 314 315 315 315 316 315 315 315 315 315 315 315 315 315 313 313 313 313 313 313 314 314 315 316 317 317 316 315 314 313 312 314 315 316 316 317 317 317 316 316 316 316 315 315 316 316 316 316
315 314 314 313 313 313 312 312 312 312 312 312 313 313 313 313 313 313 313 313 314 314 314 313 313 311 311 314 316 315 315 315 316 316 317 318 318 317 314 313 313 314 314 314 315 314 314 315 314 315 314 314 315 314 313 314 314 313 314 314 314 314 315 317 317 315 315 314 313 313 312 314 315 316 317 317 316 316 316 316 315 315 316 315 315 315 315 315
313 313 313 312 312 312 312 311 311 311 312 312 312 313 313 313 313 313 314 314 313 313 313 313 312 312 313 315 315 315 316 315 315 315 316 317 316 315 314 312 312 312 313 313 314 314 314 314 314 314 314 314 313 313 313 314 314 314 314 314 315 315 316 318 318 315 315 314 313 313 313 314 315 316 317 316 316 315 315 315 315 315 315 315 315 315 315 315
312 312 312 312 312 311 311 311 311 312 313 313 314 314 315 316 316 316 316 315 314 314 313 313 312 312 313 316 316 316 316 315 315 315 315 315 314 314 313 312 311 311 312 313 313 314 313 313 314 314 314 314 313 313 314 314 315 315 315 315 316 316 316 317 318 318 317 314 313 313 313 314 315 315 316 316 315 315 315 315 315 315 315 315 315 315 315 315
312 312 311 311 311 311 311 312 313 314 315 316 317 318 319 320 320 319 317 316 316 314 313 313 312 311 314 316 317 316 315 315 315 314 314 314 313 313 313 312 311 311 312 312 313 313 312 313 313 313 314 314 314 314 314 315 315 316 317 316 317 317 316 316 317 318 317 314 313 313 313 313 314 315 315 315 315 315 315 315 315 315 316 315 315 316 315 315
311 311 311 311 311 312 313 313 315 317 318 320 321 322 322 321 321 320 319 318 316 315 314 313 313 314 316 316 316 315 315 314 314 314 314 313 313 313 312 312 312 312 312 312 313 312 312 313 313 313 314 314 313 314 315 316 316 317 317 317 317 317 317 316 316 317 316 315 315 314 314 314 314 315 315 315 315 315 315 315 316 316 316 316 315 315 315 315
312 312 313 313 313 314 315 316 317 319 321 323 323 323 322 321 321 319 318 316 315 317 317 315 314 317 319 317 316 316 316 315 315 315 314 314 313 313 312 312 312 312 313 314 313 313 313 314 313 313 315 315 315 314 315 317 317 317 317 316 316 316 315 316 316 317 316 315 315 315 314 314 315 315 315 315 315 315 315 315 316 316 316 316 316 316 316 316
314 314 315 315 315 315 317 319 320 322 323 324 323 322 322 322 322 320 317 316 317 319 320 320 318 318 320 319 318 318 317 317 316 315 314 313 313 313 312 313 313 313 314 315 315 314 313 314 315 315 315 317 317 316 316 316 316 316 317 316 316 315 315 316 316 316 316 315 314 314 314 314 314 314 314 315 315 315 316 316 316 316 317 317 317 317 317 316
315 315 316 318 318 318 320 322 323 324 324 323 322 322 322 322 321 320 319 319 321 321 321 322 321 321 321 319 319 318 317 316 315 314 314 313 313 313 313 313 314 314 315 316 315 313 313 315 316 316 316 317 317 317 316 316 316 316 316 315 315 315 315 316 316 317 316 315 314 314 313 313 314 314 315 315 315 315 316 316 317 317 318 318 317 317 316 315
316 317 319 321 322 322 323 324 324 324 323 322 321 321 322 321 321 320 318 319 321 321 321 321 320 320 321 319 318 318 316 315 316 315 314 313 313 314 314 314 314 315 316 315 315 314 314 315 315 316 317 317 316 315 315 315 315 315 315 315 315 316 316 317 316 316 314 313 313 314 313 313 314 314 315 316 316 316 317 317 317 318 318 317 316 315 315 315
319 321 322 324 324 324 324 325 324 323 322 321 321 321 321 321 321 319 316 316 319 320 320 320 319 318 318 317 317 317 316 316 318 316 314 313 313 314 315 314 314 316 316 315 316 316 317 317 316 317 317 316 316 315 315 314 314 315 315 315 315 316 316 316 316 315 313 313 313 314 314 314 316 316 316 317 317 317 317 317 317 318 316 316 315 315 315 315
321 323 324 324 324 324 324 324 324 322 321 321 320 321 321 321 320 317 315 316 318 319 318 317 316 316 316 315 314 315 316 317 317 316 314 313 314 314 314 315 315 315 315 315 315 316 318 317 316 316 316 315 315 315 315 314 315 316 316 315 316 316 316 316 315 315 314 314 314 314 315 316 317 318 317 317 318 317 318 318 318 316 315 315 315 314 314 313
322 323 324 324 324 324 324 323 323 322 321 320 320 321 321 320 319 315 314 318 320 319 316 315 314 313 313 312 311 312 314 314 314 313 313 313 314 313 314 314 314 315 315 315 315 315 316 316 314 315 315 315 315 315 315 315 315 316 317 316 316 316 316 315 315 315 314 315 314 313 316 317 317 318 318 318 318 318 319 319 317 316 315 314 313 313 312 311
322 323 324 324 324 324 323 323 322 320 320 320 320 321 320 319 319 315 314 319 322 320 317 315 314 312 311 311 310 311 314 314 312 311 311 311 313 312 313 313 313 314 314 314 315 315 315 314 314 315 315 315 315 314 315 315 315 316 316 316 316 315 315 315 315 315 314 315 314 313 315 317 317 317 318 318 318 318 319 317 315 315 314 313 312 311 310 309
323 324 325 324 324 323 323 323 320 319 321 321 319 320 320 319 318 315 316 322 324 320 316 314 313 312 311 310 310 311 315 314 311 310 310 311 311 311 312 313 313 313 312 313 315 315 314 314 313 314 314 315 315 315 316 315 315 316 315 314 315 314 314 315 315 314 314 314 315 314 314 316 316 317 318 318 318 318 316 314 314 313 311 310 310 309 308 307
324 325 325 325 325 324 322 322 319 318 321 320 319 320 320 319 318 315 318 327 325 318 315 312 312 311 310 310 310 310 311 311 312 312 310 310 311 311 312 313 313 313 312 313 315 315 314 314 314 314 314 315 315 316 316 315 315 315 313 312 313 312 313 313 313 313 314 314 315 315 315 316 317 318 318 318 317 316 314 313 312 311 310 309 308 307 306 305
324 324 324 324 324 324 322 320 319 319 319 319 319 320 320 319 318 315 320 327 323 316 314 312 311 311 310 310 310 310 309 310 312 312 310 311 311 311 311 312 313 313 312 312 314 315 313 312 313 314 314 315 314 313 314 315 315 313 312 312 313 313 313 313 313 313 313 314 317 317 316 317 318 318 318 318 316 314 312 312 311 310 309 308 307 306 304 304
324 324 324 324 323 323 321 319 319 319 318 318 318 319 319 319 317 318 323 325 321 317 314 312 313 312 311 311 312 311 311 311 311 310 310 311 311 310 310 310 310 311 312 312 313 314 312 309 309 311 313 314 312 310 311 313 313 312 312 313 313 314 314 313 313 312 314 317 318 317 317 317 318 318 318 317 316 314 313 311 310 309 308 306 305 304 302 303
323 322 322 322 323 322 321 320 319 319 318 318 318 318 319 319 319 322 325 321 318 317 314 313 313 312 312 314 315 314 312 312 311 311 312 311 311 311 310 311 311 311 313 313 313 314 312 310 310 311 312 312 312 311 310 310 310 311 312 312 313 315 315 314 313 313 316 320 318 316 316 317 318 318 317 317 315 314 314 312 309 308 307 305 304 303 301 301
321 321 321 321 321 321 320 320 319 319 318 318 318 318 319 321 321 323 322 318 319 319 315 315 314 312 314 315 317 316 314 313 311 311 313 312 313 313 313 314 314 316 317 317 316 316 315 314 313 312 311 311 312 312 311 310 309 310 311 312 314 317 318 318 318 317 319 319 314 313 316 317 318 317 317 318 314 311 312 311 309 307 306 304 302 302 301 299
320 319 319 319 320 319 319 319 319 319 319 318 318 318 319 321 322 323 321 319 321 318 315 317 315 313 315 316 317 316 315 314 312 311 313 313 314 314 315 316 316 317 319 318 318 317 318 317 315 313 312 311 312 313 314 314 311 311 312 314 316 318 321 323 322 321 322 319 314 313 316 317 318 317 317 315 311 309 309 308 307 306 304 303 302 301 300 298
318 318 318 318 318 318 318 318 318 318 318 318 318 319 320 321 322 321 321 320 320 317 315 317 316 315 316 317 319 317 315 316 313 311 313 314 315 316 316 316 315 315 315 316 317 317 319 319 316 315 315 312 311 314 317 316 314 313 314 315 316 318 321 322 323 323 323 322 318 316 317 319 319 316 312 310 309 308 307 306 305 304 303 302 301 300 299 298
317 317 317 317 316 317 317 316 317 317 317 318 319 319 320 321 320 319 320 320 319 318 317 317 318 318 318 318 318 317 316 317 315 313 314 315 316 316 316 316 314 313 314 315 317 317 318 319 317 315 314 312 312 315 316 315 315 314 312 313 315 317 321 321 321 322 321 321 320 318 317 318 318 315 310 308 308 307 306 305 304 303 302 301 300 299 298 298
316 315 315 316 316 316 315 315 316 316 317 318 319 319 320 320 320 319 319 319 318 319 318 318 319 319 319 318 319 318 317 317 316 315 315 317 317 316 317 317 315 313 314 315 317 317 316 318 318 314 312 312 313 315 315 315 315 313 311 314 314 316 320 319 319 320 319 319 319 318 317 316 317 317 312 308 308 306 305 304 303 302 301 300 299 298 297 297
314 314 314 315 315 315 315 314 315 316 317 319 319 319 319 319 319 319 319 318 317 317 318 318 319 319 319 319 319 318 317 316 316 316 316 317 317 316 317 318 316 314 314 315 317 318 317 318 318 316 315 313 311 312 313 313 314 313 313 315 314 314 315 315 317 318 318 318 318 317 318 316 316 318 314 310 309 306 304 303 302 301 300 299 298 296 295 295
312 312 313 315 314 314 314 314 315 316 318 318 319 318 318 318 318 318 318 317 316 317 318 318 319 318 318 318 318 318 317 316 316 316 316 315 315 316 316 317 317 315 314 315 316 317 317 317 317 317 318 314 309 310 313 312 312 312 312 313 314 315 315 314 316 317 317 318 318 317 317 316 317 317 315 313 311 307 303 302 301 300 299 298 297 295 294 294
309 309 310 313 314 314 313 313 314 317 317 317 317 317 316 316 317 317 317 316 316 316 317 318 318 317 317 317 316 316 316 316 315 315 316 315 315 315 314 315 316 315 313 313 314 315 316 316 317 317 316 314 311 312 314 314 312 310 310 311 313 314 314 315 316 316 317 317 317 317 317 317 317 316 315 314 311 307 303 301 299 298 297 297 296 295 294 294
305 306 308 310 311 311 311 311 314 317 317 316 316 316 315 315 316 316 315 314 315 316 315 316 316 315 315 315 315 315 315 316 315 314 315 314 314 315 315 315 315 314 312 312 313 315 315 315 316 315 314 314 314 314 315 315 314 312 311 312 313 313 313 315 315 316 317 316 317 318 317 318 316 312 312 311 308 306 303 300 298 297 296 295 295 294 294 294
305 307 309 309 308 308 309 312 316 317 315 314 314 314 313 314 315 315 315 314 314 315 315 315 315 315 315 315 314 314 315 316 316 314 314 314 313 313 313 313 314 314 313 313 313 313 313 314 314 314 314 315 315 315 315 314 315 315 314 314 314 314 314 315 315 317 316 315 317 317 317 319 314 308 308 307 305 304 303 300 299 298 297 296 295 294 294 293
306 309 310 309 308 308 310 313 315 315 314 313 313 313 313 314 314 314 315 314 314 314 315 314 315 315 316 315 315 314 315 315 315 314 314 313 313 313 312 310 312 313 312 313 314 311 309 311 311 312 314 314 314 315 314 313 314 315 315 315 316 315 315 316 316 316 316 316 317 316 317 319 311 304 304 304 303 303 302 301 300 298 297 296 295 294 293 293
308 309 309 310 309 309 311 313 313 313 314 313 313 313 313 314 314 314 314 314 314 314 315 315 314 315 314 314 314 314 314 314 314 314 313 313 313 311 309 309 310 311 311 313 314 310 308 310 312 312 313 313 312 314 314 313 313 313 313 314 314 314 313 314 314 314 314 316 317 315 317 317 308 301 302 303 302 302 302 301 301 299 298 296 295 294 294 294
308 308 309 310 309 309 311 311 312 312 312 312 312 312 312 313 314 313 313 313 313 313 313 314 314 314 313 313 313 313 313 313 314 314 313 314 313 309 308 309 309 310 312 311 311 311 310 312 313 312 313 313 313 314 314 313 312 312 311 312 313 313 312 312 312 313 313 315 316 315 317 315 306 301 302 302 301 302 301 300 299 299 298 296 295 295 294 295
306 306 308 310 310 310 311 311 311 311 311 311 311 311 311 312 313 313 313 312 313 313 312 312 313 313 313 313 313 313 313 313 313 313 313 313 313 309 307 308 309 310 310 307 308 310 311 311 312 311 313 313 313 313 314 312 311 310 310 311 311 312 312 312 312 312 313 313 313 313 314 312 306 303 304 303 302 302 301 298 298 297 296 295 295 295 294 294
303 304 307 309 309 310 310 310 311 311 310 310 311 311 310 310 312 313 312 312 312 312 312 312 312 312 312 312 312 312 312 312 311 312 312 311 312 309 306 306 307 308 307 305 307 309 309 310 311 311 311 311 311 312 311 311 310 310 310 310 311 311 311 310 310 310 311 309 309 309 310 309 307 306 306 305 303 302 301 299 298 297 296 295 295 295 294 293
300 302 306 308 309 309 309 309 310 310 310 310 310 310 310 309 310 311 311 311 311 311 311 311 311 311 311 311 311 311 311 311 311 311 311 311 311 309 306 305 305 304 305 306 306 307 308 308 309 310 310 310 310 309 309 309 309 309 309 308 308 309 309 309 308 309 308 307 307 307 307 307 307 306 307 307 305 303 300 299 298 297 296 296 295 295 294 293
299 301 305 307 308 309 309 309 309 309 309 310 310 310 309 309 309 309 310 310 310 311 311 311 311 311 310 310 310 311 311 310 310 310 310 309 309 307 306 306 304 303 304 305 305 305 306 306 306 307 308 307 307 307 307 307 307 307 306 306 306 306 307 307 307 306 306 306 306 305 305 305 305 305 305 304 303 302 300 298 297 296 295 295 295 295 294 294
298 299 301 303 305 307 307 308 309 309 308 309 310 310 309 309 308 308 310 310 309 310 310 310 310 309 308 308 308 309 309 309 308 308 309 308 307 305 304 305 304 303 303 304 304 305 304 304 305 305 305 306 305 305 305 305 305 305 305 305 305 304 305 305 305 305 304 304 304 304 304 304 304 304 303 300 299 299 297 296 296 295 295 295 294 294 294 294
299 299 300 301 302 303 304 306 307 308 307 308 309 309 308 308 308 308 309 308 308 309 308 308 308 306 304 305 306 306 307 307 305 305 306 305 305 303 304 304 303 302 302 302 303 304 304 304 304 303 304 304 304 304 304 304 304 304 304 303 303 303 303 303 303 303 303 303 303 303 303 304 302 300 298 297 296 296 295 295 295 295 294 294 293 293 293 293
297 298 300 301 301 301 301 303 306 306 306 307 307 307 308 308 308 307 307 306 305 306 307 307 306 304 302 303 304 304 305 304 303 303 303 302 302 302 302 303 302 301 301 301 302 302 303 304 303 302 303 303 303 303 303 303 302 302 301 301 302 302 302 302 302 302 302 302 302 302 303 303 300 296 296 296 295 295 295 294 294 294 293 293 293 293 293 292
295 296 297 299 301 301 301 301 303 305 306 306 306 306 306 306 306 307 306 304 302 302 304 305 305 304 303 303 303 303 303 302 301 301 301 300 300 300 300 300 300 300 300 301 301 301 302 302 302 303 303 303 303 302 300 299 300 300 300 300 300 300 300 301 301 301 301 301 301 301 301 300 298 296 295 295 294 293 294 293 293 293 292 292 292 292 292 292
Wind_Speed
2 2 2 1 1 1 1 1 1 1 1 2 2 2 2 2 2 3 3 3 3 4 5 5 6 7 8 9 10 11 13 14 16 17 17 12 7 5 4 4 4 6 8 9 10 10 8 7 7 7 5 6 6 6 7 6 5 5 4 5 5 6 6 3 4 6 5 7 7 4 3 6 9 6 5 7 11 14 17 22 20 17 21 27 25 22 24 23
3 3 3 3 3 3 3 3 2 3 3 3 3 4 4 4 4 5 5 5 6 6 7 7 8 9 10 10 11 13 14 15 18 21 19 9 5 2 3 4 4 6 7 8 9 8 7 7 8 8 7 7 7 6 7 6 7 7 5 6 6 7 7 5 7 10 9 9 11 12 9 8 10 10 7 8 12 14 15 21 21 17 21 25 23 21 21 18
5 4 5 4 5 5 4 5 4 4 5 5 5 5 5 6 6 6 7 7 7 8 8 10 10 11 11 11 13 13 14 17 20 19 10 4 5 3 6 5 5 6 7 8 7 8 8 7 8 8 8 9 8 6 6 6 7 9 7 6 7 8 10 9 9 12 13 12 12 14 13 11 12 12 10 10 14 14 14 19 19 18 18 18 17 16 17 19
6 6 6 6 6 6 6 6 6 7 7 7 7 7 7 8 8 8 9 9 9 10 10 11 11 12 13 13 14 13 16 17 13 8 3 8 1 8 11 9 7 7 7 9 8 10 11 8 7 8 9 9 8 6 7 8 6 6 7 8 9 9 10 11 13 13 11 10 11 15 14 14 15 12 11 12 12 10 15 19 19 20 19 16 15 14 14 18
7 7 7 7 7 7 7 7 8 8 8 9 9 9 9 10 10 10 10 10 11 11 11 12 13 13 14 14 14 13 14 9 2 1 5 5 6 12 15 12 8 7 6 7 8 10 11 8 7 8 9 10 9 7 9 12 8 6 9 13 15 14 11 13 14 10 7 8 12 15 14 15 13 10 13 15 12 11 17 21 22 24 22 20 19 18 14 17
8 8 8 8 8 8 8 8 9 9 10 10 10 11 11 11 11 11 11 12 12 13 13 13 14 14 15 15 15 13 9 6 4 3 5 8 13 14 15 14 8 6 5 5 8 9 9 8 9 9 9 10 10 9 10 10 8 7 12 15 17 16 14 15 14 8 8 11 15 16 15 16 15 14 17 18 18 22 27 26 27 30 28 25 22 21 18 20
10 9 9 9 9 9 9 10 10 10 11 11 11 12 12 12 12 13 13 13 13 14 14 15 15 15 16 16 16 13 7 12 15 12 13 16 17 16 15 12 7 7 6 6 7 8 9 10 11 11 10 9 10 12 12 8 8 8 12 15 17 16 15 16 16 13 11 14 18 18 17 19 18 17 19 20 22 27 31 31 30 32 32 28 23 21 21 24
11 10 10 11 10 11 11 11 11 12 12 12 13 13 14 14 14 15 15 15 15 15 16 16 16 16 17 16 15 11 10 17 18 16 16 16 15 14 12 9 8 9 8 7 8 8 9 10 12 11 9 10 9 9 7 6 10 12 13 16 16 16 16 16 17 16 14 16 18 17 18 23 23 20 23 27 27 28 32 32 31 30 29 25 23 22 21 24
12 11 12 12 12 12 12 13 13 13 14 14 15 15 15 16 16 16 16 17 16 16 17 17 17 17 17 16 12 9 13 17 16 13 11 10 11 11 10 9 9 10 9 9 9 9 10 10 12 10 10 11 10 8 6 6 8 7 10 14 14 15 16 17 19 18 16 17 15 13 18 25 25 19 22 28 26 25 29 29 27 23 23 22 22 22 21 24
13 13 13 13 13 13 14 14 15 15 15 16 16 16 17 17 17 17 17 18 17 17 17 16 17 16 17 16 10 8 12 14 11 10 9 10 11 11 12 11 11 11 11 11 11 11 11 9 10 9 10 12 9 10 9 8 6 6 9 13 15 18 21 21 22 23 20 19 18 15 17 23 22 13 15 22 16 13 17 21 21 18 19 21 20 22 23 24
14 14 14 14 14 14 14 15 15 16 16 17 17 17 18 18 17 17 17 18 17 17 16 16 17 17 18 16 12 11 12 13 13 14 14 15 15 15 15 14 13 12 11 12 12 11 11 11 11 9 7 6 6 9 10 9 9 10 11 14 18 21 23 23 23 24 19 16 17 16 16 21 18 11 18 28 22 15 15 17 20 19 20 21 20 21 23 26
15 14 15 14 14 14 14 15 15 16 16 16 17 17 17 17 17 17 17 17 17 16 16 16 16 16 17 17 18 20 19 18 18 17 17 18 18 18 17 15 14 14 13 12 12 12 13 13 12 10 7 5 6 7 5 5 7 9 9 11 17 16 18 22 22 23 19 10 6 7 10 14 13 14 24 31 26 19 17 17 18 19 20 20 21 21 22 24
16 15 15 15 14 14 13 13 14 14 15 15 15 16 16 16 16 16 15 15 15 15 14 14 14 15 14 14 19 21 19 18 17 16 17 17 18 18 17 16 14 15 14 13 13 14 14 14 12 12 11 9 9 7 5 4 4 8 10 9 12 12 13 17 15 14 13 7 7 4 6 8 9 15 22 22 17 14 14 16 18 19 20 20 20 21 23 25
15 15 14 13 12 12 11 11 12 13 13 13 14 15 15 15 15 15 14 14 14 13 13 13 13 12 11 14 19 19 18 17 16 16 16 16 18 19 17 15 14 14 15 16 17 16 14 13 11 11 12 12 11 9 9 8 6 7 10 7 7 8 9 11 6 6 5 5 10 8 7 8 10 15 18 13 8 10 14 18 21 23 24 21 22 23 26 28
14 13 12 12 11 10 10 9 10 11 12 12 12 13 13 13 13 13 13 13 12 13 12 12 13 10 10 16 19 18 16 14 13 13 11 14 16 16 16 15 14 14 15 16 17 16 14 12 10 9 10 11 11 10 8 8 6 7 8 7 7 8 9 10 7 9 8 4 11 11 6 7 9 11 13 10 9 13 17 21 23 25 26 24 24 25 27 29
12 11 11 10 9 9 8 8 9 10 10 10 11 11 11 12 12 12 12 11 11 11 10 10 11 8 7 12 15 15 13 11 11 11 11 12 13 14 15 13 11 12 14 15 16 14 12 9 9 10 8 7 8 8 7 7 7 7 8 9 9 10 10 8 7 8 7 3 10 13 8 8 8 11 16 18 20 21 21 24 26 28 28 25 24 25 26 26
10 10 10 9 9 9 8 8 7 8 9 9 10 11 11 12 12 12 11 10 10 9 8 8 7 7 10 14 15 11 10 10 9 8 9 9 11 13 13 10 9 10 11 12 13 11 9 9 7 7 8 8 7 6 6 6 7 7 7 9 10 12 11 8 7 6 2 5 8 12 11 12 12 14 20 23 24 24 24 27 29 28 26 25 25 24 23 23
10 9 9 8 8 8 8 7 7 7 8 9 9 10 12 13 12 12 11 9 7 5 5 5 4 4 8 12 12 8 7 9 8 10 11 9 9 10 9 8 7 7 7 7 8 9 9 9 6 5 7 8 8 7 7 8 9 10 10 10 10 11 11 11 10 7 5 9 12 11 13 16 15 15 18 21 21 21 23 29 29 25 24 25 24 23 22 19
9 9 8 7 8 8 7 7 7 6 7 9 10 11 12 11 11 10 7 5 3 3 4 3 6 5 8 10 11 13 15 15 15 16 16 12 9 8 8 7 6 7 7 4 7 11 9 7 5 5 8 9 9 10 12 13 15 17 15 11 12 13 13 14 15 13 14 15 14 14 16 16 16 15 16 19 23 23 26 29 29 25 24 23 21 20 16 10
9 8 7 7 7 7 7 6 7 7 7 9 10 11 9 8 7 4 2 6 8 10 11 10 11 14 18 17 16 17 19 18 16 16 15 11 6 6 6 6 7 7 8 5 5 8 8 7 7 8 10 11 12 13 16 17 17 18 16 12 14 15 13 14 15 14 13 11 10 13 15 16 17 16 17 22 24 22 23 25 26 26 23 19 16 10 5 6
10 9 7 7 7 7 7 7 7 8 8 9 10 7 4 5 4 3 6 11 13 14 18 19 18 20 21 18 19 21 15 12 13 13 12 7 5 6 7 9 6 6 8 7 3 3 5 8 8 10 13 14 13 11 11 13 15 16 14 13 14 13 13 15 16 15 11 8 9 11 15 17 17 17 21 23 20 17 19 20 23 25 18 11 6 3 5 7
11 9 7 6 7 7 7 8 8 9 9 9 7 4 2 3 4 5 8 10 13 17 20 21 20 24 25 21 25 26 16 11 11 10 9 4 7 6 6 9 6 5 7 7 3 2 6 9 11 14 14 14 13 9 10 11 13 13 11 11 11 9 12 14 12 9 4 3 8 13 15 14 16 21 20 16 12 14 18 22 24 18 8 4 3 4 5 5
12 9 8 7 8 8 8 8 9 9 9 8 6 3 3 4 5 7 6 6 13 17 18 19 18 19 20 16 19 21 15 14 13 10 8 5 8 8 7 7 8 7 6 8 8 7 7 6 8 14 14 13 13 11 11 12 10 11 10 9 10 10 12 11 7 5 4 6 11 14 13 11 15 15 10 8 7 10 19 24 17 4 4 3 4 6 8 12
13 11 9 8 9 9 8 9 9 10 9 7 6 4 4 4 6 9 6 6 9 10 14 16 12 11 9 7 9 10 10 10 8 7 9 8 7 8 8 8 9 9 8 11 12 12 13 7 1 6 10 11 13 12 11 10 9 10 10 10 11 13 14 13 11 12 12 11 10 10 10 7 5 3 3 4 5 9 17 13 3 7 6 6 12 16 18 18
15 13 11 10 10 9 9 9 8 8 7 6 5 4 4 5 7 9 5 6 6 6 9 7 4 4 4 3 3 3 6 6 5 7 10 11 8 5 4 6 7 8 9 12 13 12 13 5 3 5 8 8 11 10 11 11 8 10 10 11 14 15 15 15 15 12 10 7 2 5 8 4 2 1 5 5 6 14 12 3 10 10 10 13 17 19 20 20
16 14 12 12 11 10 8 7 5 4 4 3 3 3 3 5 7 8 4 4 5 3 5 3 3 2 1 1 1 4 5 4 5 8 8 11 11 6 2 3 4 5 4 5 7 6 6 3 2 5 8 8 9 10 12 11 9 8 5 6 10 11 12 12 12 8 6 6 2 2 5 5 4 8 9 6 11 15 4 11 12 14 17 17 18 20 21 20
17 14 13 12 11 9 7 5 4 2 2 3 3 3 3 4 6 7 3 5 5 2 5 3 2 2 1 1 4 4 2 3 3 5 8 10 10 6 5 3 3 3 1 1 4 2 5 7 3 3 7 8 8 9 9 9 9 6 4 7 6 7 9 8 7 6 6 8 8 6 7 7 7 6 6 9 12 6 8 13 13 16 19 19 20 21 21 21
20 16 14 13 12 10 8 7 5 2 4 4 2 3 2 4 5 4 2 6 3 4 4 3 2 1 1 4 5 2 1 3 2 2 8 11 9 6 6 7 5 4 5 5 5 1 3 5 4 5 7 7 8 5 2 5 8 2 4 5 4 4 6 6 5 7 6 8 8 5 7 6 8 3 4 8 6 5 11 11 13 16 17 18 19 20 20 21
20 16 14 14 13 11 10 9 6 4 5 4 2 2 3 4 4 2 2 4 0 4 3 3 3 2 4 4 4 3 1 1 1 1 6 9 10 6 3 5 6 6 7 8 8 4 1 2 1 4 6 6 5 2 4 3 5 1 2 3 2 3 5 4 5 6 6 8 9 6 9 6 7 3 2 3 2 7 9 9 12 15 16 17 18 19 19 21
16 14 14 13 13 12 11 10 8 6 5 5 3 2 3 3 3 3 5 3 1 2 3 4 3 4 6 5 5 6 5 2 2 4 5 4 8 8 3 2 3 5 7 9 11 11 4 4 2 4 9 5 1 3 3 2 1 2 2 5 5 7 6 5 5 4 5 8 8 7 12 8 6 2 1 2 5 7 8 7 9 13 15 15 16 17 19 23
15 14 14 13 13 13 12 11 10 8 6 6 4 2 2 1 2 5 5 1 2 1 4 4 3 3 5 3 2 4 4 3 5 5 4 3 5 7 4 3 3 4 5 6 8 10 7 5 2 5 9 6 2 2 1 2 1 1 3 4 6 5 4 4 4 3 6 6 3 1 6 9 7 1 1 3 8 8 7 8 8 11 14 15 15 14 18 23
15 15 15 14 15 14 13 12 10 8 8 6 4 2 1 2 4 7 4 1 1 2 2 2 2 2 2 1 2 2 1 2 5 6 4 3 4 6 6 5 2 3 5 4 3 4 6 8 8 5 5 8 6 3 2 3 3 3 4 4 4 5 4 5 5 4 6 4 3 4 1 6 8 6 8 6 7 11 10 11 12 12 14 14 14 12 15 20
17 16 16 16 17 16 16 15 11 9 8 6 5 3 1 5 5 4 6 4 1 1 1 2 2 1 1 1 3 0 0 1 6 5 3 3 3 5 8 8 4 3 6 6 6 4 4 3 8 6 2 8 9 5 3 3 5 6 5 4 4 5 6 7 7 7 7 2 3 3 1 5 7 7 8 3 9 13 14 16 16 15 15 14 12 11 13 18
18 17 17 17 18 18 17 15 13 11 9 7 6 3 4 7 3 2 5 8 1 2 2 2 2 1 3 5 4 1 2 2 4 4 2 3 4 5 8 8 7 4 3 4 6 5 6 4 7 7 3 10 12 8 3 2 4 7 4 3 4 4 5 6 6 6 7 6 4 1 1 4 4 2 6 10 13 15 16 17 17 16 14 12 12 11 10 16
19 18 18 18 18 17 15 14 14 12 10 10 6 4 7 7 3 2 6 7 2 2 2 2 1 2 5 7 5 3 4 2 2 2 3 5 6 6 7 5 8 6 2 2 3 3 6 7 5 4 2 11 12 9 4 2 2 4 2 1 4 3 2 3 5 7 7 8 8 5 4 5 6 1 10 14 13 15 16 15 15 15 13 11 10 10 12 18
18 18 18 18 18 16 14 13 12 11 13 11 5 6 8 4 4 4 3 4 3 1 1 2 3 4 7 6 4 5 5 2 1 2 3 6 8 9 8 3 6 9 6 3 3 2 6 6 5 5 1 7 7 5 6 5 3 2 3 3 2 2 2 2 6 6 5 7 7 5 7 7 9 7 10 15 12 12 12 12 13 12 11 10 9 10 14 18
18 18 19 20 19 15 13 13 12 13 15 11 6 6 4 3 7 8 2 0 2 1 1 4 3 3 6 5 4 5 5 3 4 4 3 5 6 7 9 5 5 10 10 7 3 2 5 8 3 6 7 4 1 1 3 4 2 2 3 2 2 1 1 3 6 5 6 9 6 6 11 9 7 6 7 14 12 10 9 9 11 10 9 10 8 9 12 14
19 19 21 24 21 16 15 13 13 15 14 9 9 8 3 3 8 9 3 2 1 1 2 4 3 2 5 7 8 5 5 5 5 5 5 5 4 3 5 5 4 5 6 5 3 1 2 7 5 6 6 2 3 1 4 3 1 0 1 1 0 3 4 4 6 6 8 10 7 8 12 10 7 6 4 10 11 10 8 7 8 8 8 8 7 8 10 12
17 15 17 23 22 19 19 17 17 18 12 7 10 9 4 5 8 9 5 1 0 1 2 6 6 6 9 10 11 7 6 7 7 6 6 5 5 2 1 2 2 3 3 1 3 3 1 5 5 0 1 1 3 3 6 5 2 2 1 2 2 3 5 5 5 5 8 10 9 9 10 8 5 4 2 6 11 11 8 6 5 5 5 5 5 6 8 9
12 8 10 17 18 18 21 20 19 18 10 7 9 6 2 3 6 9 9 5 3 4 5 7 8 10 10 11 12 9 6 7 8 8 7 6 7 2 4 5 3 3 4 1 3 3 2 6 7 2 1 2 4 5 6 8 5 3 4 5 5 4 2 3 5 4 6 8 8 8 9 7 2 5 5 8 9 8 9 8 5 5 5 4 4 5 6 7
10 4 6 12 13 16 24 20 16 14 9 7 8 6 5 4 4 6 8 9 9 7 6 6 8 10 8 9 11 8 6 6 7 8 8 7 10 5 4 5 4 4 4 2 2 2 2 4 6 5 3 6 7 3 1 4 4 2 4 5 7 7 4 6 8 6 5 6 6 7 9 5 1 5 5 8 8 7 8 8 6 6 6 5 4 3 5 5
11 5 5 11 13 21 27 17 13 13 10 10 10 8 8 7 8 8 7 8 10 8 6 5 7 8 7 7 8 7 6 5 6 8 7 8 11 6 3 5 4 4 4 3 2 2 2 1 4 7 7 10 12 5 3 1 1 2 3 3 4 5 4 7 9 5 3 5 4 6 8 2 3 5 6 7 7 7 8 8 8 7 6 5 4 3 4 5
12 7 7 13 18 26 24 11 10 11 9 12 13 11 11 9 8 10 9 8 8 7 7 6 7 8 8 8 8 9 8 5 7 9 9 10 8 1 4 4 3 3 3 3 2 1 1 2 4 6 6 9 13 6 4 3 0 1 2 2 2 5 4 4 5 3 2 4 5 6 6 1 4 5 6 6 6 6 5 5 6 6 5 4 3 2 3 4
10 7 8 13 20 27 20 8 9 11 10 13 12 12 14 12 9 9 9 9 9 7 7 7 8 8 8 8 8 9 9 5 6 7 7 8 3 5 6 4 2 1 2 2 1 1 2 3 2 4 4 5 8 6 2 2 2 1 1 2 3 5 5 4 3 3 3 6 8 10 7 1 2 2 1 2 1 2 2 3 3 3 3 2 1 1 2 4
8 6 7 13 23 28 18 7 6 9 11 14 13 13 13 10 9 12 12 11 10 9 7 6 6 6 7 7 7 8 9 6 5 5 5 6 2 4 5 6 4 1 2 3 2 1 3 3 2 5 6 5 6 6 4 1 1 1 3 5 6 6 5 5 4 4 5 3 4 7 7 2 1 4 5 5 4 3 2 2 2 2 3 3 2 2 2 3
6 4 5 9 19 24 17 9 7 7 9 12 10 11 14 11 8 10 11 12 13 13 11 9 7 6 7 9 8 9 10 10 8 5 5 6 2 2 4 5 5 3 3 3 2 1 3 3 5 8 9 9 9 9 7 6 6 7 6 7 8 7 5 4 5 5 3 5 5 7 9 8 9 9 7 5 6 6 5 5 5 4 4 4 3 3 3 2
4 3 6 7 8 12 11 10 11 9 8 10 8 8 14 15 10 8 9 9 8 9 10 10 9 8 8 9 10 9 10 11 8 6 7 8 4 1 2 3 4 3 2 2 2 0 3 6 9 11 12 13 14 15 14 12 11 11 12 12 13 11 7 7 9 8 5 7 8 8 10 12 11 12 11 8 8 7 6 6 6 5 4 4 4 5 6 5
4 1 6 9 6 7 8 9 12 12 11 10 7 8 11 13 12 9 8 6 3 4 6 6 7 10 8 6 6 6 7 7 7 6 6 5 3 0 1 2 2 2 2 2 1 1 3 8 11 12 14 16 17 17 16 15 13 13 15 16 16 16 14 12 12 12 11 11 11 12 17 17 14 16 16 9 3 4 4 3 4 4 4 5 5 6 7 8
5 2 4 8 5 3 3 5 11 14 13 9 6 8 11 12 13 8 3 4 5 6 7 7 6 6 4 2 2 5 6 5 4 3 1 1 0 1 2 2 2 3 2 2 3 3 4 6 8 9 12 13 14 15 14 13 14 15 17 18 19 20 21 18 16 17 18 18 18 20 23 23 18 15 7 3 7 5 4 2 3 4 4 5 5 6 8 8
5 2 3 6 3 1 3 5 10 11 9 7 6 7 8 12 14 9 3 3 6 7 9 9 4 5 4 2 3 5 5 2 2 3 1 2 2 2 3 4 1 2 1 2 3 4 6 5 1 2 7 10 11 12 12 12 13 14 15 17 20 22 21 20 18 17 17 18 20 21 22 19 10 3 6 9 8 6 4 2 2 3 3 3 5 7 8 8
9 5 5 4 3 4 4 4 8 9 6 8 8 6 7 11 14 11 4 2 3 7 8 6 3 5 3 3 5 6 3 2 1 2 2 1 4 3 1 1 0 1 1 2 1 2 5 5 2 2 7 10 10 11 11 10 10 11 13 18 21 20 17 17 16 14 14 16 18 18 16 9 1 6 6 6 6 4 1 1 2 2 2 4 6 8 9 9
9 7 6 4 2 6 6 3 6 9 7 8 8 7 6 5 6 9 7 2 4 1 4 4 4 3 5 7 7 6 1 3 2 1 3 2 3 4 5 5 4 3 3 2 2 2 4 5 4 5 5 6 8 8 5 4 7 10 11 14 18 17 16 17 16 16 18 17 14 12 7 1 3 4 4 4 4 3 4 4 4 3 4 6 8 9 10 11
Wind_Direction
321 326 331 335 330 314 293 284 265 260 244 245 248 247 252 250 262 265 272 283 289 299 303 309 312 315 317 318 320 321 321 319 317 307 301 301 285 292 312 290 276 261 249 244 243 237 236 227 219 219 211 216 226 230 233 231 215 215 236 249 256 262 279 291 277 294 300 299 303 284 250 280 289 269 253 272 268 266 273 275 269 255 256 267 274 273 277 283
294 298 303 301 297 294 288 285 282 278 272 271 269 267 268 266 271 273 279 284 288 294 298 303 305 308 312 314 316 318 319 319 312 303 301 285 232 285 336 311 295 271 252 247 247 230 217 215 213 214 209 222 231 226 239 228 206 221 248 262 255 264 288 295 288 295 293 290 297 300 294 281 282 285 282 280 274 274 275 275 273 263 257 265 272 275 280 282
284 288 291 290 292 291 288 288 285 282 281 281 279 279 279 279 280 281 283 286 289 293 296 299 302 305 306 308 311 313 319 316 307 304 300 183 158 1 343 321 292 281 258 245 240 216 215 219 209 212 220 237 233 214 236 216 207 233 239 259 258 266 280 276 283 288 286 292 294 295 297 285 279 279 270 267 275 276 270 270 274 272 268 268 271 275 275 275
277 279 282 283 285 286 287 288 287 287 285 283 283 282 281 282 282 283 285 287 290 291 293 296 298 301 302 305 307 312 320 312 298 296 200 163 154 332 328 320 289 277 258 240 227 214 218 218 209 218 233 250 236 216 237 214 202 235 225 249 269 281 284 274 286 291 286 294 292 291 293 283 281 277 253 256 273 269 261 265 269 273 279 285 288 293 277 270
274 274 276 277 278 279 280 280 281 281 280 280 281 280 281 281 281 282 283 285 287 289 291 293 295 297 299 301 302 312 322 314 295 185 186 200 297 308 311 312 292 269 259 241 232 226 221 215 214 223 235 255 246 227 245 228 218 254 241 251 267 276 279 278 290 294 287 295 288 284 281 281 284 271 249 251 258 256 263 272 278 280 286 291 292 297 284 264
270 271 272 273 273 273 272 273 273 272 274 275 276 277 277 278 279 279 280 282 283 285 287 288 291 293 295 298 298 306 311 294 308 284 243 277 293 294 297 300 286 256 251 235 234 231 220 213 214 227 237 254 254 245 260 240 212 252 260 258 266 271 274 281 289 282 276 281 277 276 280 284 279 269 263 255 251 255 263 272 279 283 286 289 288 286 274 262
265 267 268 270 270 271 271 271 270 271 272 272 272 273 273 274 275 275 276 278 279 282 284 285 287 289 293 295 296 298 269 266 283 277 277 289 287 287 290 290 267 237 241 235 232 224 216 215 220 239 250 254 262 258 264 252 218 244 270 270 273 276 275 279 283 276 269 266 269 277 284 280 270 273 277 266 260 262 266 270 274 281 285 287 285 277 269 268
263 266 268 270 272 274 273 273 273 273 273 273 273 273 273 274 274 275 275 276 278 280 281 282 285 287 290 292 296 290 249 260 280 283 285 285 278 279 279 273 244 232 244 238 229 224 221 226 232 244 255 258 271 267 261 258 244 245 258 270 276 275 274 277 279 271 262 261 268 275 274 269 267 277 281 273 269 266 268 273 273 277 282 282 281 276 270 273
266 268 270 272 274 275 276 276 276 276 276 276 276 275 276 276 276 277 278 278 278 279 281 282 283 285 287 289 289 277 258 266 281 285 283 277 271 270 266 264 245 236 245 239 227 223 224 238 244 242 260 276 280 271 261 253 260 261 264 277 285 282 280 280 278 268 260 261 264 263 263 265 272 282 277 270 270 267 267 271 273 275 276 278 278 277 273 274
267 269 271 272 273 275 276 277 278 278 279 278 279 279 279 280 280 281 281 281 280 280 281 281 283 283 284 284 273 264 267 268 272 275 275 273 269 264 265 264 250 243 243 240 230 225 230 249 258 247 264 282 276 267 256 245 275 305 295 292 287 284 283 278 275 269 262 262 258 250 258 270 279 283 272 271 274 271 265 268 276 279 278 280 278 277 279 280
269 270 272 273 273 275 276 277 278 278 279 280 281 281 282 283 284 284 284 284 283 283 283 281 283 280 279 277 255 251 266 267 273 278 276 274 269 264 264 261 253 245 236 239 241 236 236 247 254 249 261 274 269 264 244 246 282 292 299 298 283 280 280 272 269 267 259 260 257 246 258 274 278 264 258 270 277 274 268 272 280 284 283 284 282 278 280 284
273 274 276 276 277 279 279 280 280 280 281 282 283 284 285 286 287 287 286 286 286 285 284 281 279 275 277 270 252 255 267 271 277 279 274 273 271 267 264 259 250 241 232 234 246 244 238 246 248 244 256 273 282 278 243 255 288 285 289 290 283 282 277 270 265 262 255 248 238 234 258 267 261 243 248 263 274 271 265 270 279 283 284 285 284 279 276 278
276 277 279 281 283 284 284 285 285 286 286 287 289 289 290 291 292 291 290 290 289 287 286 282 278 275 271 263 260 267 271 271 273 273 273 272 270 267 264 257 247 242 237 230 239 245 240 246 246 242 255 263 269 277 279 279 269 278 280 272 283 285 275 273 264 254 250 212 153 185 262 267 263 258 260 270 278 269 262 272 283 286 286 285 281 278 274 274
277 278 280 282 284 285 287 288 288 289 290 291 292 292 294 295 295 296 295 293 291 289 284 277 276 272 260 262 272 276 275 274 272 271 273 270 266 267 264 257 247 241 238 235 241 247 244 241 236 243 252 247 260 284 282 265 242 270 279 258 265 272 271 277 251 188 214 177 163 203 261 271 274 279 282 293 290 271 272 281 289 286 285 282 277 274 273 273
274 276 278 278 280 281 283 284 286 286 288 291 292 294 296 298 299 300 297 295 293 289 283 277 272 264 262 271 276 279 280 277 274 273 270 263 264 266 264 259 251 243 238 239 242 243 245 238 223 236 246 237 253 278 274 261 251 259 271 260 247 255 272 277 241 198 222 198 171 199 261 272 262 275 287 298 290 278 278 283 285 283 282 281 276 273 272 273
270 271 270 270 270 271 274 276 279 282 286 291 295 298 300 302 304 302 300 299 294 289 283 277 267 252 262 274 276 283 288 283 278 279 272 263 260 259 262 261 251 244 237 236 240 239 237 226 217 232 242 239 243 253 263 268 260 245 248 262 261 265 279 281 268 250 242 184 181 208 254 282 270 281 289 293 291 288 285 284 282 279 280 279 276 274 272 274
258 258 256 256 257 260 264 266 270 277 285 293 299 302 307 309 308 306 306 302 297 293 281 270 257 249 257 266 274 286 296 292 285 286 284 274 259 253 258 258 244 238 232 230 233 226 216 206 210 230 232 239 245 243 256 257 255 254 248 257 259 261 274 282 293 299 186 173 221 230 244 266 272 279 282 284 285 287 287 284 279 278 280 280 278 275 273 277
246 246 246 245 247 252 256 259 263 271 288 301 307 311 314 314 313 310 305 301 299 296 279 246 210 238 252 256 272 287 295 294 290 294 294 284 265 251 242 238 229 210 200 213 216 198 195 199 204 230 228 231 238 228 236 242 253 275 277 280 277 269 278 286 289 301 273 254 267 265 260 272 281 281 279 281 283 283 281 279 280 284 286 280 276 274 276 280
237 238 238 239 242 247 251 258 265 274 297 307 315 321 321 322 316 306 298 292 278 273 291 223 202 261 290 282 285 286 284 285 287 288 284 277 270 247 226 219 197 186 191 193 191 187 191 198 197 224 231 228 227 219 229 246 261 279 286 289 289 283 283 286 285 291 295 288 283 280 280 287 293 292 288 284 281 277 274 278 285 289 284 276 274 277 283 295
233 233 231 233 241 249 256 269 279 291 304 311 325 332 334 336 318 303 300 281 266 266 280 275 254 267 284 287 285 283 285 286 284 281 276 271 260 222 198 181 175 199 222 217 185 180 195 214 208 217 233 241 243 238 243 255 268 279 284 281 280 281 280 283 284 286 294 292 280 284 288 292 298 298 287 277 274 271 271 277 281 279 276 278 281 285 317 359
232 231 229 236 248 258 268 281 291 301 309 317 334 341 345 346 316 308 322 297 278 273 277 279 271 263 268 273 269 270 280 292 287 280 277 259 200 191 176 171 186 216 223 214 173 145 201 230 229 230 244 255 264 271 271 272 274 276 280 280 277 278 280 281 283 287 297 293 282 290 292 295 299 291 280 275 272 268 268 269 268 270 279 297 315 6 11 8
239 236 235 249 264 270 280 291 296 303 313 321 336 348 336 339 309 302 316 296 282 285 282 277 269 260 261 260 260 262 267 279 276 271 273 222 179 200 180 177 213 233 200 188 188 204 224 238 237 238 251 260 265 277 282 277 275 274 274 274 274 278 283 283 281 286 309 295 291 300 298 296 288 278 279 280 267 256 255 253 258 271 299 346 2 348 343 54
251 248 248 260 270 275 285 294 297 303 313 319 328 337 338 341 328 320 315 279 283 287 275 264 257 258 264 262 263 264 257 255 256 252 251 200 180 203 200 200 232 241 199 195 227 240 247 253 236 236 247 258 261 261 266 270 267 260 258 265 273 278 281 285 288 292 295 283 292 301 298 288 273 265 270 270 241 240 252 251 255 294 37 26 24 37 57 74
261 259 257 263 270 278 287 291 295 302 307 312 316 328 350 348 342 341 320 265 276 273 257 255 249 252 259 251 260 257 234 235 241 230 217 203 194 197 209 227 238 242 227 226 238 245 257 276 122 229 245 254 262 262 261 263 261 255 253 259 267 272 278 286 299 305 300 288 290 302 297 282 265 204 191 230 220 253 265 255 184 90 85 82 75 72 69 65
268 270 264 263 271 281 288 291 292 296 301 308 317 332 357 356 354 355 327 264 263 242 236 239 216 233 247 235 253 225 209 218 218 209 196 197 198 179 210 229 229 248 243 239 245 252 263 267 123 226 249 247 256 261 254 253 266 267 260 260 264 274 286 294 303 310 304 289 329 352 314 289 139 209 274 287 271 269 274 110 100 89 84 82 78 71 62 58
264 270 267 264 273 281 287 291 280 286 309 309 325 346 357 360 355 355 343 266 268 204 182 183 173 190 259 282 194 176 192 201 217 226 204 194 194 192 255 191 195 264 282 259 258 264 264 232 166 245 251 246 246 252 251 248 262 271 285 301 287 289 296 298 303 303 292 289 325 6 304 282 262 268 273 271 263 269 306 82 86 79 74 66 62 63 58 50
258 258 261 263 267 268 267 260 244 257 296 283 330 6 2 360 353 357 353 268 275 121 125 137 156 187 258 180 168 182 195 128 164 214 203 198 191 199 244 202 187 242 171 292 278 241 211 217 219 235 237 241 238 250 253 236 246 265 8 359 335 318 304 302 303 286 277 293 288 248 234 261 280 272 244 240 253 282 59 76 81 76 72 65 58 57 56 51
255 249 249 252 252 253 253 244 238 239 241 255 330 8 6 355 348 358 309 274 294 98 117 120 122 188 174 153 163 180 59 127 149 187 190 196 182 180 234 235 255 247 173 209 251 166 161 207 213 206 219 234 235 263 306 217 239 273 44 360 345 327 299 298 293 281 284 294 287 219 194 249 283 267 196 232 251 66 77 81 76 63 56 62 62 55 53 56
248 247 245 243 243 247 249 244 243 244 244 251 293 341 2 343 329 341 250 262 76 107 129 129 121 133 143 161 184 200 222 211 307 131 171 190 184 188 247 248 266 264 214 220 244 261 193 152 208 216 225 246 242 332 23 238 245 48 55 314 295 252 261 264 265 279 286 276 274 227 192 237 295 280 202 211 138 94 96 91 81 72 55 49 52 54 59 66
241 244 244 243 244 246 248 249 249 244 249 256 262 321 354 327 301 236 215 229 36 101 137 156 143 147 174 191 191 196 214 212 97 132 158 183 193 206 263 287 269 266 240 233 248 258 232 116 56 245 236 248 107 77 34 327 334 45 296 282 274 251 241 242 247 265 269 263 276 236 197 217 292 295 172 100 106 111 118 114 95 90 80 61 50 50 59 70
240 240 239 238 239 242 246 251 251 247 248 257 266 305 321 299 248 228 218 257 331 127 139 160 146 161 191 198 193 206 209 163 144 166 180 173 189 203 227 241 223 242 249 238 241 247 229 198 209 224 222 215 159 165 91 67 78 261 263 279 290 267 230 232 221 205 248 260 316 5 191 223 255 217 118 63 82 89 107 120 106 90 86 77 67 59 62 70
242 242 239 236 235 236 240 247 252 250 244 244 237 207 255 247 227 227 209 71 289 200 157 147 127 156 183 348 319 261 234 168 173 196 215 194 198 207 211 220 216 246 261 262 254 234 224 219 206 186 197 202 204 208 169 150 174 214 237 250 282 277 245 248 237 220 248 241 101 61 29 245 251 261 276 298 68 78 83 102 109 101 92 84 76 69 69 73
245 242 240 238 237 235 236 242 245 237 228 220 199 162 212 240 235 230 209 208 247 88 76 54 79 114 181 277 292 255 124 198 174 195 229 208 231 234 224 227 234 274 276 290 309 281 266 225 184 174 187 196 197 199 205 201 182 191 215 222 246 274 272 269 269 265 263 252 108 93 357 275 265 270 269 280 83 86 86 93 101 100 97 93 87 78 74 78
243 241 240 237 238 237 234 236 233 225 217 199 179 159 212 230 250 6 221 219 232 64 86 66 81 225 239 253 279 274 229 228 155 178 210 204 240 255 242 226 208 231 269 278 293 268 275 286 180 181 169 167 188 220 236 76 175 198 200 214 236 258 271 275 282 283 286 302 310 277 249 275 281 54 98 103 98 95 91 93 96 93 92 89 87 85 78 80
240 239 237 235 235 234 229 227 223 217 205 187 178 201 218 226 232 246 239 232 224 91 112 103 132 253 264 257 260 234 225 240 126 182 225 229 246 259 262 229 188 193 197 240 266 233 260 269 170 146 144 160 182 220 205 107 214 205 126 209 241 211 195 252 260 265 288 300 287 255 236 266 276 156 117 111 104 100 97 97 96 92 93 90 82 79 77 79
242 239 237 236 233 227 220 218 214 206 196 185 186 222 223 233 228 225 259 253 232 156 136 204 200 240 268 257 218 193 195 205 194 212 227 233 249 253 257 245 170 183 181 194 255 230 257 269 127 105 251 190 187 207 187 199 247 139 146 212 237 121 147 246 257 243 248 268 264 245 250 261 268 244 147 121 107 106 105 100 97 95 96 94 83 78 81 84
246 245 244 240 233 224 212 206 201 197 194 190 210 231 226 235 233 237 271 39 265 31 159 235 212 227 265 265 243 209 183 188 197 202 235 236 244 243 240 236 172 190 209 220 254 247 263 279 203 177 234 233 71 356 206 228 276 149 191 220 50 63 180 245 262 246 238 256 256 249 265 268 267 259 147 129 122 116 110 100 104 106 104 98 87 81 86 91
248 249 252 249 239 225 207 195 190 192 190 197 229 241 248 234 236 243 226 151 282 41 157 231 215 212 256 264 276 253 185 201 211 204 242 251 239 218 232 240 170 181 236 242 258 285 276 286 258 207 239 245 93 276 245 229 209 163 274 334 18 262 255 230 242 250 248 261 265 255 267 268 253 258 196 155 140 122 113 105 105 107 105 103 97 95 99 103
249 248 257 255 246 228 209 196 191 194 193 207 229 235 239 235 235 235 223 150 129 169 226 246 239 249 256 259 276 266 207 238 253 242 252 253 242 200 87 336 112 93 360 323 258 286 264 273 278 101 351 29 131 210 231 210 159 88 295 279 233 253 271 252 246 255 251 260 267 258 261 262 259 305 316 143 132 127 128 120 109 108 109 111 116 114 105 96
237 235 255 253 245 222 201 192 193 197 200 218 227 224 216 236 231 225 230 234 217 214 240 246 240 249 258 260 266 264 244 250 256 255 255 254 258 232 77 27 10 48 25 357 257 283 249 248 263 289 33 223 212 223 241 243 236 211 224 234 225 219 262 280 257 243 247 258 261 258 257 252 274 13 41 93 104 113 126 127 130 136 139 138 126 108 88 74
207 217 246 233 225 196 180 181 197 203 209 230 235 234 227 235 227 209 216 223 224 231 243 249 250 252 258 260 257 257 258 250 244 254 256 251 257 256 77 42 9 23 8 304 263 293 273 254 267 277 253 239 250 259 327 292 291 285 247 242 246 243 242 258 247 222 221 243 248 259 263 252 50 17 44 84 88 94 111 124 136 144 151 153 138 106 86 81
190 215 218 199 190 174 170 179 206 206 213 230 234 237 228 227 233 224 208 207 217 229 237 245 253 252 255 259 259 262 263 255 246 250 252 253 257 265 41 39 23 17 346 298 289 33 23 262 264 268 255 263 279 293 84 70 327 331 270 259 288 288 262 252 253 246 230 236 245 264 262 241 60 20 32 66 81 94 105 117 127 133 137 135 135 119 84 70
198 215 186 177 175 170 171 190 213 204 221 233 234 240 232 228 236 230 216 213 219 221 226 233 237 240 243 248 254 258 257 255 247 244 246 253 256 344 45 33 41 18 340 299 271 78 91 220 242 256 259 276 282 275 114 99 223 233 248 256 291 298 302 277 270 302 293 248 254 261 253 217 51 25 32 51 67 86 97 104 116 126 127 122 120 98 64 40
198 199 177 176 174 174 181 206 210 209 225 229 233 238 234 238 242 231 221 219 222 225 231 238 240 242 247 252 256 252 251 255 251 249 252 257 263 71 57 30 44 5 335 337 293 247 256 265 279 286 284 279 269 250 184 84 75 110 281 288 277 289 307 301 279 287 265 240 248 259 260 254 66 35 65 93 83 95 95 80 85 107 120 129 114 48 13 9
180 185 186 183 179 185 202 231 220 222 223 223 233 234 233 242 236 230 234 232 226 230 238 244 246 252 256 256 258 252 246 244 250 265 263 255 261 68 47 23 36 69 60 59 56 297 273 276 282 278 274 263 260 264 266 297 15 320 261 250 253 263 275 288 290 269 255 260 264 263 271 293 247 237 215 200 219 226 175 133 130 148 159 178 212 258 304 341
180 193 185 180 186 199 222 244 238 241 225 220 233 232 231 238 222 206 219 234 237 234 238 248 250 253 254 247 248 253 247 240 244 262 261 251 246 78 55 36 46 67 87 82 62 313 267 264 249 250 257 260 270 284 296 295 285 281 277 265 260 253 234 247 262 250 273 321 298 263 272 286 284 276 254 212 214 225 216 198 185 180 183 195 221 246 261 298
206 220 181 172 190 210 229 235 228 235 232 224 230 229 231 237 230 198 194 219 242 236 239 252 248 240 243 240 240 248 250 247 245 252 261 262 259 124 99 76 55 57 107 103 56 265 253 264 256 251 253 259 267 275 281 281 273 273 279 275 271 268 251 237 246 256 297 305 277 267 279 280 279 280 276 260 235 219 207 201 192 182 190 205 229 246 252 266
216 265 179 175 188 212 219 218 211 216 231 234 234 238 234 230 227 220 204 199 201 207 222 240 235 229 234 241 237 234 237 243 240 236 250 261 263 291 107 128 102 89 149 172 169 203 261 267 264 262 263 265 269 271 272 272 269 271 274 271 271 273 265 253 253 265 276 272 267 280 285 281 280 281 281 282 244 180 162 171 182 181 196 214 234 252 261 266
219 293 194 182 192 212 193 182 190 206 226 230 230 241 238 231 230 229 205 190 202 208 216 228 221 193 180 194 219 228 240 250 257 244 225 70 31 314 298 247 166 125 148 216 213 219 256 263 264 270 271 269 270 269 269 268 267 267 269 269 270 269 266 266 271 272 271 269 270 275 275 273 278 285 291 88 104 122 133 150 185 202 217 228 244 265 277 280
218 248 181 181 195 110 109 158 180 195 213 213 221 239 233 233 236 226 169 186 220 220 221 231 210 133 128 164 195 230 254 286 307 289 77 71 278 265 272 267 225 112 116 238 228 245 260 262 314 320 280 271 268 268 267 267 269 271 271 269 266 266 268 272 275 273 269 269 268 266 267 268 279 2 81 108 114 121 139 171 223 237 259 279 284 291 297 300
226 215 172 181 208 165 146 170 186 195 210 210 217 229 221 228 233 227 205 145 219 241 242 233 173 124 141 208 225 253 270 105 217 260 129 197 274 292 294 277 336 54 252 240 255 282 270 269 310 312 275 268 270 272 273 275 278 273 264 260 258 261 266 267 267 265 262 263 264 263 267 271 20 82 96 114 105 90 85 333 311 292 320 325 313 307 307 309
230 217 191 197 216 177 167 167 193 204 218 218 220 228 231 231 219 218 223 140 104 256 272 241 203 204 236 243 251 264 257 118 148 159 127 199 262 273 264 257 254 248 235 235 276 274 259 266 281 281 271 269 272 279 300 316 287 264 250 248 250 253 259 259 259 259 258 260 265 269 275 288 102 99 105 104 78 26 346 342 333 319 324 324 314 307 308 311